Location: Stara Lesna
(49.1528°N, 20.2911°E)
Time: 06:58:17
(UTC+02:00)

NOSS 3-2 (C) - Pass Details

Date: 21 September 2019
Orbit: 820 x 1393 km, 63.4° (Epoch: 08 October)

Event Time Altitude Azimuth Distance (km) Brightness Sun altitude
Exits shadow 02:37:31 40° 102° (ESE) 1,365 4.3 -33.2°
Drops below altitude 10° 02:42:52 10° 51° (NE) 2,816 6.7 -32.6°
Sets 02:45:47 0° 45° (NE) 3,865 7.7 -32.3°
